DLH1785 EDDH-EDDS

Flight info

Callsign DLH1785
Flight time N/A
Altitude 33000
Route AMLUH2G AMLUH M852 DENIX Z113 SAS/N0440F330 P605 ELNAT/N0384F230 P605 TOSTU T726 LBU
Aircraft A20N/M-SDE2E3FGHIRWXY/LB1

Departure

Time 2026-04-25 14:00
Airport Hamburg Helmut Schmidt Airport (EDDH)

Arrival

Time N/A
Airport Stuttgart Airport (EDDS)
Time Latitude Longitude Altitude Speed Heading
2026-04-25 13:25 53.62945 10.00289 47 ft 0 kts 122°
2026-04-25 13:52 53.62945 10.00288 47 ft 2 kts 122°
2026-04-25 13:52 53.62955 10.00262 47 ft 3 kts 142°
2026-04-25 13:53 53.62969 10.00244 44 ft 3 kts 137°
2026-04-25 13:53 53.62983 10.00223 46 ft 3 kts 137°
2026-04-25 13:53 53.62998 10.00203 48 ft 2 kts 148°
2026-04-25 13:53 53.63015 10.00198 49 ft 3 kts 190°
2026-04-25 13:54 53.63019 10.00200 48 ft 0 kts 205°
2026-04-25 13:57 53.62998 10.00182 45 ft 8 kts 211°
2026-04-25 13:58 53.62953 10.00135 49 ft 8 kts 210°
2026-04-25 13:58 53.62909 10.00091 46 ft 7 kts 211°
2026-04-25 13:58 53.62876 10.00048 47 ft 5 kts 224°
2026-04-25 13:58 53.62859 10.00005 49 ft 4 kts 241°
2026-04-25 13:59 53.62848 9.99971 49 ft 3 kts 241°
2026-04-25 13:59 53.62835 9.99930 50 ft 7 kts 241°
2026-04-25 13:59 53.62815 9.99863 49 ft 7 kts 244°
2026-04-25 13:59 53.62834 9.99776 50 ft 11 kts 328°
2026-04-25 14:00 53.62867 9.99745 50 ft 25 kts 334°
2026-04-25 14:00 53.63703 9.99022 46 ft 132 kts 333°
2026-04-25 14:00 53.64626 9.98251 322 ft 147 kts 333°
2026-04-25 14:00 53.65543 9.97545 930 ft 145 kts 335°
2026-04-25 14:01 53.66504 9.96823 1438 ft 161 kts 333°
2026-04-25 14:01 53.67573 9.95948 1996 ft 180 kts 332°
2026-04-25 14:01 53.68728 9.94964 2559 ft 195 kts 332°
2026-04-25 14:01 53.70060 9.94255 3132 ft 210 kts 356°
2026-04-25 14:02 53.71553 9.94798 3707 ft 231 kts 25°
2026-04-25 14:02 53.72785 9.96473 4693 ft 230 kts 54°
2026-04-25 14:02 53.73509 9.98900 5551 ft 235 kts 69°
2026-04-25 14:02 53.73698 9.99780 5829 ft 236 kts 71°
2026-04-25 14:03 53.73900 10.04362 7105 ft 246 kts 108°
2026-04-25 14:03 53.73458 10.06189 7380 ft 261 kts 117°
2026-04-25 14:03 53.72215 10.09893 8173 ft 278 kts 121°
2026-04-25 14:03 53.71556 10.11775 8705 ft 282 kts 121°
2026-04-25 14:04 53.70557 10.14660 9542 ft 286 kts 120°
2026-04-25 14:04 53.69507 10.17551 10327 ft 293 kts 126°
2026-04-25 14:04 53.68050 10.20102 10716 ft 314 kts 145°
2026-04-25 14:04 53.66032 10.21750 11092 ft 332 kts 162°
2026-04-25 14:05 53.63771 10.22845 11724 ft 342 kts 166°
2026-04-25 14:05 53.61441 10.23869 12507 ft 348 kts 166°
2026-04-25 14:05 53.59083 10.24909 13315 ft 353 kts 166°
2026-04-25 14:05 53.56694 10.25978 14107 ft 357 kts 166°
2026-04-25 14:06 53.54308 10.27056 14865 ft 361 kts 165°
2026-04-25 14:06 53.51864 10.28165 15635 ft 365 kts 165°
2026-04-25 14:06 53.49391 10.29291 16374 ft 369 kts 165°
2026-04-25 14:06 53.46893 10.30428 17080 ft 374 kts 165°
2026-04-25 14:07 53.44383 10.31571 17763 ft 377 kts 165°
2026-04-25 14:07 53.41825 10.32732 18431 ft 381 kts 165°
2026-04-25 14:07 53.39246 10.33896 19082 ft 385 kts 165°
2026-04-25 14:07 53.36643 10.35068 19713 ft 389 kts 165°
2026-04-25 14:08 53.34014 10.36248 20331 ft 393 kts 165°
2026-04-25 14:08 53.31398 10.37420 20935 ft 396 kts 165°
2026-04-25 14:08 53.28723 10.38619 21512 ft 400 kts 165°
2026-04-25 14:08 53.26012 10.39832 22082 ft 403 kts 165°
2026-04-25 14:09 53.23289 10.41049 22627 ft 407 kts 165°
2026-04-25 14:09 53.20541 10.42276 23154 ft 410 kts 165°
2026-04-25 14:09 53.17773 10.43510 23662 ft 413 kts 165°
2026-04-25 14:09 53.15923 10.44311 23986 ft 415 kts 167°
2026-04-25 14:10 53.12084 10.45256 24615 ft 419 kts 178°
2026-04-25 14:10 53.09187 10.45314 25065 ft 421 kts 181°